Flag for Brunei Past Weather in Bandar Seri Begawan, Brunei — Yesterday and Last 2 Weeks

Now
79 °F

Partly sunny.


Feels Like: 83 °F
Forecast: 79 / 92 °F
Wind: 1 mph from Southeast

Location: Brunei Airport

Current Time: Aug 27, 2016 at 7:28:13 AM

Latest Report: Aug 27, 2016 at 7:00 AM


Visibility: N/A

Pressure: 29.86 "Hg

Humidity: 94%

Dew Point: 77 °F

Location of Bandar Seri BegawanLocation

Past Weather in Bandar Seri Begawan — Graph

°F

Bandar Seri Begawan Temperature Yesterday

Maximum temperature yesterday: 93 °F (at 1:30 PM)
Minimum temperature yesterday: 77 °F (at 6:00 AM)
Average temperature yesterday: 84 °F

High & Low Weather Summary for the Past Weeks

 TemperatureHumidityPressure
High95 °F (Aug 18, 12:00 PM)100% (Aug 15, 3:00 AM)29.89 "Hg (Aug 15, 3:00 AM)
Low77 °F (Aug 14, 7:00 AM)44% (Aug 20, 2:00 PM)29.65 "Hg (Aug 24, 3:00 PM)
Average84 °F78%29.77 "Hg
* Reported Aug 12 6:00 AM — Aug 27 6:00 AM, Bandar Seri Begawan, Weather by CustomWeather, © 2016

Note: Actual official high and low records may vary slightly from our data, if they occured in-between our weather recording intervals... More about our weather records

Advertising

Bandar Seri Begawan Weather History for the Previous 24 Hours

Scroll right to see more
 ConditionsComfort  
Time TempWeatherWind HumidityBarometerVisibility
6:00 AM
Sat, Aug 27
77 °FPartly cloudy.1 mph94%29.86 "HgN/A
5:30 AM79 °FPartly cloudy.2 mph89%29.86 "HgN/A
5:00 AM79 °FPartly cloudy.2 mph89%29.83 "HgN/A
4:30 AM79 °FPartly cloudy.2 mph89%29.83 "HgN/A
4:00 AM79 °FPartly cloudy.1 mph89%29.83 "HgN/A
3:30 AM79 °FPartly cloudy.3 mph89%29.83 "HgN/A
3:00 AM79 °FPassing clouds.2 mph89%29.83 "HgN/A
2:30 AM79 °FPassing clouds.2 mph89%29.83 "HgN/A
2:00 AM79 °FPassing clouds.1 mph89%29.86 "HgN/A
1:30 AM79 °FPassing clouds.1 mph89%29.86 "HgN/A
1:00 AM79 °FPassing clouds.2 mph89%29.86 "HgN/A
12:30 AM79 °FPassing clouds.2 mph89%29.86 "HgN/A
12:00 AM81 °FPassing clouds.1 mph84%29.86 "HgN/A
11:30 PM
Fri, Aug 26
81 °FPassing clouds.1 mph84%29.86 "HgN/A
11:00 PM81 °FPassing clouds.2 mph84%29.86 "HgN/A
10:30 PM81 °FPassing clouds.1 mph84%29.86 "HgN/A
10:00 PM82 °FPassing clouds.2 mph74%29.86 "HgN/A
9:30 PM82 °FPassing clouds.1 mph74%29.86 "HgN/A
9:00 PM84 °FPassing clouds.1 mph70%29.83 "HgN/A
8:30 PM84 °FPassing clouds.2 mph70%29.83 "HgN/A
8:00 PM86 °FPartly cloudy.1 mph66%29.83 "HgN/A
7:30 PM86 °FPartly cloudy.3 mph66%29.80 "HgN/A
7:00 PM88 °FPartly cloudy.5 mph59%29.80 "HgN/A
6:30 PM88 °FPassing clouds.5 mph59%29.80 "HgN/A
6:00 PM90 °FPartly sunny.7 mph55%29.77 "HgN/A
5:30 PM90 °FPartly sunny.7 mph55%29.77 "HgN/A
5:00 PM90 °FBroken clouds.8 mph52%29.77 "HgN/A
4:30 PM91 °FBroken clouds.13 mph49%29.77 "HgN/A
4:00 PM91 °FBroken clouds.13 mph49%29.77 "HgN/A
3:30 PM93 °FPartly sunny.12 mph49%29.74 "HgN/A
3:00 PM93 °FPartly sunny.12 mph49%29.77 "HgN/A
2:30 PM93 °FPartly sunny.12 mph49%29.77 "HgN/A
2:00 PM93 °FBroken clouds.8 mph49%29.77 "HgN/A
1:30 PM93 °FBroken clouds.12 mph49%29.80 "HgN/A
1:00 PM91 °FBroken clouds.10 mph49%29.80 "HgN/A
12:30 PM91 °FBroken clouds.10 mph52%29.83 "HgN/A
12:00 PM90 °FPartly sunny.13 mph55%29.83 "HgN/A
11:30 AM90 °FPartly sunny.9 mph59%29.83 "HgN/A
11:00 AM88 °FPartly sunny.9 mph62%29.86 "HgN/A
10:30 AM86 °FBroken clouds.12 mph62%29.86 "HgN/A
10:00 AM84 °FBroken clouds.12 mph66%29.86 "HgN/A
9:30 AM82 °FBroken clouds.14 mph70%29.86 "HgN/A
9:00 AM82 °FBroken clouds.16 mph70%29.86 "HgN/A
8:30 AM81 °FBroken clouds.12 mph74%29.86 "HgN/A
8:00 AM79 °FPartly sunny.13 mph84%29.86 "Hg6 mi
7:30 AM77 °FBroken clouds.9 mph89%29.86 "Hg6 mi
7:00 AM77 °FThunderstorms. Broken clouds.9 mph89%29.83 "Hg6 mi
Weather by CustomWeather, © 2016

See weather overviewHow to use our weather pages